| time (UTC) | temp C | wind direction | speed KPH | gust KPH | rain 1hr cm | rain 24hr cm | rain mn cm | humidity % | barometer mb |
| 20260508084556 | 5 | 0 | 0.0 | 1.6 | 0.00 | 0.00 | 0.00 | 83 | 1012.4 |
| 20260508083110 | 5 | 295 | 0.0 | 4.8 | 0.00 | 0.00 | 0.00 | 83 | 1012.3 |
| 20260508081600 | 6 | 0 | 0.0 | 1.6 | 0.00 | 0.00 | 0.00 | 81 | 1012.5 |
| 20260508080109 | 7 | 156 | 0.0 | 3.2 | 0.00 | 0.00 | 0.00 | 79 | 1012.5 |
| 20260508074555 | 7 | 232 | 1.6 | 6.4 | 0.00 | 0.00 | 0.00 | 78 | 1012.5 |
| 20260508073103 | 7 | 248 | 1.6 | 8.0 | 0.00 | 0.00 | 0.00 | 78 | 1012.8 |
| 20260508071603 | 7 | 277 | 3.2 | 12.9 | 0.00 | 0.00 | 0.00 | 78 | 1012.8 |
| 20260508070141 | 7 | 230 | 4.8 | 12.9 | 0.00 | 0.00 | 0.00 | 78 | 1013.0 |
| 20260508064609 | 7 | 245 | 6.4 | 12.9 | 0.00 | 0.00 | 0.00 | 78 | 1013.1 |
| 20260508063057 | 7 | 224 | 0.0 | 9.7 | 0.00 | 0.00 | 0.00 | 80 | 1012.9 |
| 20260508061603 | 6 | 0 | 0.0 | 1.6 | 0.00 | 0.00 | 0.00 | 82 | 1012.9 |
| 20260508060057 | 6 | 0 | 0.0 | 3.2 | 0.00 | 0.00 | 0.00 | 82 | 1012.8 |
| 20260508054557 | 6 | 0 | 0.0 | 0.0 | 0.00 | 0.00 | 0.00 | 80 | 1013.1 |
| 20260508053105 | 6 | 0 | 0.0 | 0.0 | 0.00 | 0.00 | 0.00 | 77 | 1013.1 |
| 20260508051557 | 6 | 0 | 0.0 | 0.0 | 0.00 | 0.00 | 0.00 | 78 | 1013.1 |
| 20260508044557 | 7 | 0 | 0.0 | 1.6 | 0.00 | 0.00 | 0.00 | 74 | 1013.1 |
| 20260508043104 | 7 | 0 | 0.0 | 1.6 | 0.00 | 0.00 | 0.00 | 74 | 1013.0 |
| 20260508041558 | 7 | 0 | 0.0 | 1.6 | 0.00 | 0.00 | 0.00 | 71 | 1013.4 |
| 20260508040057 | 8 | 0 | 0.0 | 3.2 | 0.00 | 0.00 | 0.00 | 70 | 1013.4 |
| 20260508034555 | 8 | 285 | 1.6 | 8.0 | 0.00 | 0.00 | 0.00 | 69 | 1013.4 |
| 20260508033058 | 7 | 279 | 4.8 | 9.7 | 0.00 | 0.00 | 0.00 | 73 | 1013.5 |
| 20260508031559 | 5 | 255 | 0.0 | 0.0 | 0.00 | 0.00 | 0.00 | 83 | 1013.5 |
| 20260508024601 | 4 | 359 | 0.0 | 1.6 | 0.00 | 0.00 | 0.00 | 81 | 1013.4 |
| 20260508023055 | 4 | 0 | 0.0 | 0.0 | 0.00 | 0.00 | 0.00 | 78 | 1013.3 |
| 20260508021559 | 5 | 0 | 0.0 | 0.0 | 0.00 | 0.00 | 0.00 | 76 | 1013.3 |
| 20260508020055 | 5 | 0 | 0.0 | 0.0 | 0.00 | 0.00 | 0.00 | 74 | 1013.2 |
| 20260508014556 | 6 | 0 | 0.0 | 1.6 | 0.00 | 0.00 | 0.00 | 73 | 1013.0 |
| 20260508013105 | 6 | 0 | 0.0 | 0.0 | 0.00 | 0.00 | 0.00 | 70 | 1012.9 |
| 20260508011557 | 6 | 41 | 1.6 | 1.6 | 0.00 | 0.00 | 0.00 | 70 | 1012.8 |
| 20260508010056 | 7 | 0 | 0.0 | 1.6 | 0.00 | 0.00 | 0.00 | 62 | 1012.7 |
| 20260508004601 | 8 | 275 | 0.0 | 1.6 | 0.00 | 0.00 | 0.00 | 59 | 1012.6 |
| 20260508003055 | 9 | 0 | 0.0 | 6.4 | 0.00 | 0.00 | 0.00 | 52 | 1012.4 |
| 20260508001557 | 10 | 323 | 1.6 | 3.2 | 0.00 | 0.00 | 0.00 | 50 | 1012.4 |
| 20260508000057 | 11 | 289 | 4.8 | 9.7 | 0.00 | 0.00 | 0.00 | 48 | 1012.2 |
| 20260507234558 | 12 | 280 | 0.0 | 9.7 | 0.00 | 0.00 | 0.00 | 46 | 1012.1 |
| 20260507233058 | 12 | 245 | 1.6 | 6.4 | 0.00 | 0.00 | 0.00 | 47 | 1012.1 |
| 20260507231600 | 12 | 295 | 4.8 | 16.1 | 0.00 | 0.00 | 0.00 | 45 | 1012.0 |
| 20260507230105 | 12 | 314 | 3.2 | 12.9 | 0.00 | 0.00 | 0.00 | 45 | 1012.2 |
| 20260507224601 | 13 | 301 | 4.8 | 19.3 | 0.00 | 0.00 | 0.00 | 45 | 1012.2 |
| 20260507223057 | 12 | 263 | 4.8 | 12.9 | 0.00 | 0.00 | 0.00 | 46 | 1012.1 |
| 20260507221600 | 12 | 292 | 6.4 | 12.9 | 0.00 | 0.00 | 0.00 | 47 | 1012.2 |
| 20260507220059 | 13 | 342 | 6.4 | 17.7 | 0.00 | 0.00 | 0.00 | 44 | 1012.0 |
| 20260507214559 | 12 | 282 | 6.4 | 14.5 | 0.00 | 0.00 | 0.00 | 45 | 1012.0 |
| 20260507213101 | 12 | 291 | 9.7 | 19.3 | 0.00 | 0.00 | 0.00 | 46 | 1011.8 |
| 20260507211601 | 13 | 257 | 11.3 | 24.1 | 0.00 | 0.00 | 0.00 | 45 | 1011.7 |
| 20260507204601 | 13 | 302 | 6.4 | 25.7 | 0.00 | 0.00 | 0.00 | 49 | 1011.6 |
| 20260507203055 | 13 | 278 | 11.3 | 25.7 | 0.00 | 0.00 | 0.00 | 48 | 1011.4 |
| 20260507201604 | 12 | 116 | 9.7 | 25.7 | 0.00 | 0.00 | 0.00 | 51 | 1011.3 |
| 20260507200057 | 12 | 230 | 9.7 | 22.5 | 0.00 | 0.00 | 0.00 | 48 | 1011.4 |
| 20260507194603 | 13 | 288 | 11.3 | 24.1 | 0.00 | 0.00 | 0.00 | 48 | 1011.6 |
| 20260507193058 | 13 | 246 | 11.3 | 24.1 | 0.00 | 0.00 | 0.00 | 47 | 1011.8 |
| 20260507191614 | 13 | 311 | 9.7 | 22.5 | 0.00 | 0.00 | 0.00 | 51 | 1011.7 |
| 20260507190059 | 13 | 281 | 14.5 | 25.7 | 0.00 | 0.00 | 0.00 | 46 | 1011.8 |
| 20260507184603 | 12 | 247 | 9.7 | 22.5 | 0.00 | 0.00 | 0.00 | 53 | 1011.9 |
| 20260507183103 | 12 | 214 | 9.7 | 20.9 | 0.00 | 0.00 | 0.00 | 50 | 1011.9 |
| 20260507181556 | 12 | 333 | 11.3 | 22.5 | 0.00 | 0.00 | 0.00 | 49 | 1012.0 |
| 20260507180101 | 12 | 245 | 9.7 | 19.3 | 0.00 | 0.00 | 0.00 | 48 | 1012.0 |
| 20260507174613 | 13 | 303 | 6.4 | 20.9 | 0.00 | 0.00 | 0.00 | 51 | 1012.1 |
| 20260507173058 | 12 | 271 | 8.0 | 19.3 | 0.00 | 0.00 | 0.00 | 47 | 1012.1 |
| 20260507171556 | 12 | 288 | 8.0 | 22.5 | 0.00 | 0.00 | 0.00 | 47 | 1012.1 |
| 20260507170056 | 12 | 243 | 8.0 | 16.1 | 0.00 | 0.00 | 0.00 | 46 | 1012.1 |
| 20260507164622 | 12 | 243 | 8.0 | 17.7 | 0.00 | 0.00 | 0.00 | 48 | 1012.2 |
| 20260507163054 | 12 | 255 | 6.4 | 20.9 | 0.00 | 0.00 | 0.00 | 49 | 1012.3 |
| 20260507161606 | 12 | 255 | 8.0 | 19.3 | 0.00 | 0.00 | 0.00 | 49 | 1012.2 |
| 20260507160057 | 12 | 308 | 6.4 | 16.1 | 0.00 | 0.00 | 0.00 | 52 | 1012.3 |
| 20260507154558 | 12 | 263 | 6.4 | 12.9 | 0.00 | 0.00 | 0.00 | 52 | 1012.3 |
| 20260507153056 | 12 | 281 | 6.4 | 17.7 | 0.00 | 0.00 | 0.00 | 51 | 1012.2 |
| 20260507151556 | 12 | 334 | 8.0 | 20.9 | 0.00 | 0.00 | 0.00 | 47 | 1012.3 |
| 20260507150054 | 11 | 266 | 8.0 | 14.5 | 0.00 | 0.00 | 0.00 | 55 | 1012.4 |
| 20260507144600 | 11 | 276 | 6.4 | 12.9 | 0.00 | 0.00 | 0.00 | 59 | 1012.5 |
| 20260507143133 | 11 | 274 | 3.2 | 17.7 | 0.00 | 0.00 | 0.00 | 63 | 1012.5 |
| 20260507141621 | 10 | 244 | 6.4 | 11.3 | 0.00 | 0.00 | 0.00 | 64 | 1012.7 |
| 20260507140059 | 10 | 277 | 8.0 | 17.7 | 0.00 | 0.00 | 0.00 | 68 | 1012.9 |
| 20260507134600 | 9 | 275 | 3.2 | 12.9 | 0.00 | 0.00 | 0.00 | 71 | 1013.0 |
| 20260507133109 | 9 | 319 | 4.8 | 9.7 | 0.00 | 0.00 | 0.00 | 73 | 1013.2 |
| 20260507131613 | 8 | 279 | 4.8 | 8.0 | 0.00 | 0.00 | 0.00 | 74 | 1013.1 |
| 20260507130058 | 8 | 241 | 3.2 | 9.7 | 0.00 | 0.00 | 0.00 | 77 | 1013.1 |
| 20260507124558 | 8 | 285 | 6.4 | 9.7 | 0.00 | 0.00 | 0.00 | 75 | 1013.1 |
| 20260507123112 | 9 | 0 | 1.6 | 4.8 | 0.00 | 0.00 | 0.00 | 83 | 1013.1 |
| 20260507121608 | 8 | 0 | 0.0 | 1.6 | 0.00 | 0.00 | 0.00 | 88 | 1013.0 |
| 20260507120110 | 7 | 0 | 0.0 | 0.0 | 0.00 | 0.00 | 0.00 | 91 | 1013.0 |
| 20260507114559 | 6 | 0 | 0.0 | 3.2 | 0.00 | 0.00 | 0.00 | 91 | 1013.1 |
| 20260507113059 | 5 | 0 | 0.0 | 0.0 | 0.00 | 0.00 | 0.00 | 91 | 1013.0 |
| 20260507111559 | 3 | 0 | 0.0 | 0.0 | 0.00 | 0.00 | 0.00 | 92 | 1012.9 |
| 20260507110100 | 1 | 0 | 0.0 | 0.0 | 0.00 | 0.00 | 0.00 | 91 | 1012.8 |
| 20260507104601 | 1 | 0 | 0.0 | 0.0 | 0.00 | 0.00 | 0.00 | 91 | 1012.7 |
| 20260507103058 | 1 | 0 | 0.0 | 0.0 | 0.00 | 0.00 | 0.00 | 91 | 1012.5 |
| 20260507101601 | 1 | 0 | 0.0 | 0.0 | 0.00 | 0.00 | 0.00 | 91 | 1012.5 |
| 20260507094600 | 1 | 0 | 0.0 | 0.0 | 0.00 | 0.10 | 0.00 | 91 | 1012.4 |
| 20260507093110 | 1 | 0 | 0.0 | 0.0 | 0.00 | 0.10 | 0.00 | 91 | 1012.4 |
| 20260507091558 | 1 | 0 | 0.0 | 0.0 | 0.00 | 0.10 | 0.00 | 91 | 1012.6 |